Regional Weather Roundup
Issued by NWS

Home | Current Version | Previous Version | Text Only | Print | Product List | Glossary On
Versions: 1 2 3 4 5 6 7 8 9 10 11 12 13 14 15 16 17 18 19 20 21 22 23 24 25 26 27 28 29 30 31 32 33 34 35 36 37 38 39 40 41 42 43 44 45 46 47 48 49 50
000
ASUS42 KFFC 290710
RWRGA
WEATHER ROUNDUP FOR GEORGIA
NATIONAL WEATHER SERVICE PEACHTREE CITY GA
300 AM EDT SAT APR 29 2017

NOTE: "FAIR" INDICATES FEW OR NO CLOUDS BELOW 12,000 FEET WITH NO
SIGNIFICANT WEATHER AND/OR OBSTRUCTIONS TO VISIBILITY.

* = USE WITH CAUTION. THE STATIONS MARKED WITH AN ASTERISK MAY NOT
REPORT WEATHER SUCH AS PRECIPITATION, FOG, OR THUNDER AND ARE NOT
QUALITY CONTROLLED BY NWS.

THE REMARK "TC" DENOTES TEMPERATURE READING IN DEGREES CELSIUS.

GAZ001>058-290800-
NORTH GEORGIA

CITY           SKY/WX    TMP DP  RH WIND       PRES   REMARKS
ATLANTA        MOCLDY    73  66  78 S7        30.08F
ATHENS         CLOUDY    66  66 100 CALM      30.09F
CHAMBLEE       CLEAR     70  66  87 S5        30.08F
PEACHTREE CITY PTCLDY    67  66  97 CALM      30.08F
ROME           PTCLDY    72  65  78 S3        30.03F
WEST ATLANTA   CLEAR     73  68  84 SW3       30.07F
GAINESVILLE    CLEAR     71  66  84 SE5       30.11F
CARTERSVILLE   PTCLDY    66  64  93 SE5       30.06F


CITY           SKY/WX    TMP DP  RH WIND       PRES   REMARKS
DALTON*        CLEAR     70  68  94 S5        30.02F
MARIETTA       CLEAR     73  66  77 S5        30.07F
CANTON*        PTCLDY    70  63  78 CALM      30.09F
$$

GAZ059>098-102>109-290800-
CENTRAL GEORGIA

CITY           SKY/WX    TMP DP  RH WIND       PRES   REMARKS
AUGUSTA-BUSH   MOCLDY    75  70  84 SE7       30.09F
AUGUSTA-DANIEL MOCLDY    75  68  78 SE6       30.11F
COLUMBUS       PTCLDY    75  67  76 CALM      30.06F
MACON          PTCLDY    69  66  90 SE5       30.08S
ROBINS AFB     PTCLDY    70  67  90 SE5       30.07S


CITY           SKY/WX    TMP DP  RH WIND       PRES   REMARKS
LAGRANGE*      PTCLDY    68  68 100 CALM      30.07F
SYLVANIA*      MOCLDY   N/A N/A N/A CALM      30.13F
MILLEDGEVILLE* PTCLDY    70  70 100 CALM      30.09S
$$

GAZ099>101-110>166-290800-
SOUTH GEORGIA

CITY           SKY/WX    TMP DP  RH WIND       PRES   REMARKS
SAVANNAH       MOCLDY    76  71  85 S13       30.13F
VALDOSTA       MOCLDY    73  68  84 SE3       30.08F
ALMA           CLOUDY    73  69  87 SE6       30.11S
ST SIMONS      MOCLDY    76  72  87 S7        30.13F
FT STEWART     PTCLDY    74  70  89 SE5       30.11S
ALBANY         CLOUDY    71  66  84 E3        30.09S
HUNTER AFB     PTCLDY    76  76 100 S7G17     30.11S
MOODY AFB      MOCLDY    73  67  82 E5        30.07F
BRUNSWICK      CLOUDY    77  73  88 S8        30.14S


CITY           SKY/WX    TMP DP  RH WIND       PRES   REMARKS
BAINBRIDGE*    MOCLDY    72  68  88 CALM      30.07S
MOULTRIE*      CLOUDY    70  64  83 CALM      30.09F
VIDALIA*       MOCLDY    73  70  88 SE5       30.11F
WAYCROSS*      CLOUDY    76  74  91 SE6       30.11F
DOUGLAS*       MOCLDY    73  68  83 SE3       30.11F
$$



USA.gov is the U.S. government's official web portal to all federal, state and local government web resources and services.